Location: El Mouella
(16.4949°N, 9.1594°W)
Time: 14:52:01
(UTC+00:00)

ARIANE 44P R/B - Pass Details

Date: 02 June 2020
Orbit: 362 x 35420 km, 6.9° (Epoch: 05 July)

Event Time Altitude Azimuth Distance (km) Brightness Sun altitude
Rises 19:18:16 0° 259° (WSW) 14,918 10.6 -3.4°
Reaches altitude 10° 19:39:29 10° 252° (WSW) 7,905 8.9 -8.0°
Maximum altitude 19:54:29 32° 195° (SSW) 1,930 4.9 -11.2°
Enters shadow 19:57:45 15° 136° (SE) 1,871 4.4 -11.9°
